Year,Month,Day,Hour,Minute,Value (Times are PST for temperature in C)
2011,08,19,00,00,13.30
2011,08,19,00,01,13.30
2011,08,19,00,02,13.30
2011,08,19,00,03,13.30
2011,08,19,00,04,13.30
2011,08,19,00,05,13.30
2011,08,19,00,06,13.30
2011,08,19,00,07,13.20
2011,08,19,00,08,13.20
2011,08,19,00,09,13.20
2011,08,19,00,10,13.20
2011,08,19,00,11,13.20
2011,08,19,00,12,13.10
2011,08,19,00,13,13.10
2011,08,19,00,14,13.10
2011,08,19,00,15,13.10
2011,08,19,00,16,13.10
2011,08,19,00,17,13.00
2011,08,19,00,18,13.00
2011,08,19,00,19,13.00
2011,08,19,00,20,13.00
2011,08,19,00,21,12.90
2011,08,19,00,22,12.90
2011,08,19,00,23,12.80
2011,08,19,00,24,12.80
2011,08,19,00,25,12.80
2011,08,19,00,26,12.80
2011,08,19,00,27,12.80
2011,08,19,00,28,12.80
2011,08,19,00,29,12.70
2011,08,19,00,30,12.70
2011,08,19,00,31,12.70
2011,08,19,00,32,12.60
2011,08,19,00,33,12.60
2011,08,19,00,34,12.60
2011,08,19,00,35,12.60
2011,08,19,00,36,12.50
2011,08,19,00,37,12.50
2011,08,19,00,38,12.50
2011,08,19,00,39,12.40
2011,08,19,00,40,12.40
2011,08,19,00,41,12.40
2011,08,19,00,42,12.40
2011,08,19,00,43,12.40
2011,08,19,00,44,12.40
2011,08,19,00,45,12.40
2011,08,19,00,46,12.40
2011,08,19,00,47,12.40
2011,08,19,00,48,12.30
2011,08,19,00,49,12.30
2011,08,19,00,50,12.30
2011,08,19,00,51,12.30
2011,08,19,00,52,12.30
2011,08,19,00,53,12.30
2011,08,19,00,54,12.30
2011,08,19,00,55,12.30
2011,08,19,00,56,12.30
2011,08,19,00,57,12.30
2011,08,19,00,58,12.20
2011,08,19,00,59,12.20
2011,08,19,01,00,12.20
2011,08,19,01,01,12.20
2011,08,19,01,02,12.20
2011,08,19,01,03,12.20
2011,08,19,01,04,12.20
2011,08,19,01,05,12.20
2011,08,19,01,06,12.20
2011,08,19,01,07,12.20
2011,08,19,01,08,12.20
2011,08,19,01,09,12.10
2011,08,19,01,10,12.10
2011,08,19,01,11,12.10
2011,08,19,01,12,12.10
2011,08,19,01,13,12.10
2011,08,19,01,14,12.00
2011,08,19,01,15,12.00
2011,08,19,01,16,12.00
2011,08,19,01,17,12.00
2011,08,19,01,18,12.00
2011,08,19,01,19,11.90
2011,08,19,01,20,11.90
2011,08,19,01,21,11.90
2011,08,19,01,22,11.90
2011,08,19,01,23,11.80
2011,08,19,01,24,11.80
2011,08,19,01,25,11.80
2011,08,19,01,26,11.80
2011,08,19,01,27,11.80
2011,08,19,01,28,11.80
2011,08,19,01,29,11.80
2011,08,19,01,30,11.80
2011,08,19,01,31,11.80
2011,08,19,01,32,11.80
2011,08,19,01,33,11.80
2011,08,19,01,34,11.80
2011,08,19,01,35,11.80
2011,08,19,01,36,11.80
2011,08,19,01,37,11.80
2011,08,19,01,38,11.80
2011,08,19,01,39,11.80
2011,08,19,01,40,11.80
2011,08,19,01,41,11.80
2011,08,19,01,42,11.80
2011,08,19,01,43,11.70
2011,08,19,01,44,11.70
2011,08,19,01,45,11.70
2011,08,19,01,46,11.70
2011,08,19,01,47,11.60
2011,08,19,01,48,11.60
2011,08,19,01,49,11.60
2011,08,19,01,50,11.60
2011,08,19,01,51,11.60
2011,08,19,01,52,11.60
2011,08,19,01,53,11.60
2011,08,19,01,54,11.60
2011,08,19,01,55,11.60
2011,08,19,01,56,11.50
2011,08,19,01,57,11.40
2011,08,19,01,58,11.40
2011,08,19,01,59,11.40
2011,08,19,02,00,11.40
2011,08,19,02,01,11.40
2011,08,19,02,02,11.40
2011,08,19,02,03,11.40
2011,08,19,02,04,11.40
2011,08,19,02,05,11.40
2011,08,19,02,06,11.40
2011,08,19,02,07,11.40
2011,08,19,02,08,11.40
2011,08,19,02,09,11.40
2011,08,19,02,10,11.40
2011,08,19,02,11,11.40
2011,08,19,02,12,11.40
2011,08,19,02,13,11.40
2011,08,19,02,14,11.30
2011,08,19,02,15,11.30
2011,08,19,02,16,11.40
2011,08,19,02,17,11.40
2011,08,19,02,18,11.40
2011,08,19,02,19,11.40
2011,08,19,02,20,11.40
2011,08,19,02,21,11.40
2011,08,19,02,22,11.40
2011,08,19,02,23,11.40
2011,08,19,02,24,11.30
2011,08,19,02,25,11.30
2011,08,19,02,26,11.40
2011,08,19,02,27,11.40
2011,08,19,02,28,11.40
2011,08,19,02,29,11.40
2011,08,19,02,30,11.40
2011,08,19,02,31,11.40
2011,08,19,02,32,11.40
2011,08,19,02,33,11.40
2011,08,19,02,34,11.40
2011,08,19,02,35,11.40
2011,08,19,02,36,11.30
2011,08,19,02,37,11.30
2011,08,19,02,38,11.30
2011,08,19,02,39,11.30
2011,08,19,02,40,11.20
2011,08,19,02,41,11.20
2011,08,19,02,42,11.10
2011,08,19,02,43,11.10
2011,08,19,02,44,11.10
2011,08,19,02,45,11.10
2011,08,19,02,46,11.10
2011,08,19,02,47,11.10
2011,08,19,02,48,11.10
2011,08,19,02,49,11.10
2011,08,19,02,50,11.10
2011,08,19,02,51,11.00
2011,08,19,02,52,10.90
2011,08,19,02,53,10.90
2011,08,19,02,54,10.90
2011,08,19,02,55,10.90
2011,08,19,02,56,10.90
2011,08,19,02,57,10.90
2011,08,19,02,58,10.90
2011,08,19,02,59,10.90
2011,08,19,03,00,10.90
2011,08,19,03,01,10.90
2011,08,19,03,02,10.90
2011,08,19,03,03,10.90
2011,08,19,03,04,10.90
2011,08,19,03,05,10.90
2011,08,19,03,06,10.80
2011,08,19,03,07,10.80
2011,08,19,03,08,10.80
2011,08,19,03,09,10.80
2011,08,19,03,10,10.80
2011,08,19,03,11,10.80
2011,08,19,03,12,10.80
2011,08,19,03,13,10.80
2011,08,19,03,14,10.80
2011,08,19,03,15,10.80
2011,08,19,03,16,10.80
2011,08,19,03,17,10.80
2011,08,19,03,18,10.80
2011,08,19,03,19,10.80
2011,08,19,03,20,10.80
2011,08,19,03,21,10.80
2011,08,19,03,22,10.80
2011,08,19,03,23,10.80
2011,08,19,03,24,10.70
2011,08,19,03,25,10.70
2011,08,19,03,26,10.70
2011,08,19,03,27,10.70
2011,08,19,03,28,10.70
2011,08,19,03,29,10.70
2011,08,19,03,30,10.70
2011,08,19,03,31,10.80
2011,08,19,03,32,10.80
2011,08,19,03,33,10.80
2011,08,19,03,34,10.80
2011,08,19,03,35,10.80
2011,08,19,03,36,10.80
2011,08,19,03,37,10.80
2011,08,19,03,38,10.80
2011,08,19,03,39,10.80
2011,08,19,03,40,10.80
2011,08,19,03,41,10.80
2011,08,19,03,42,10.80
2011,08,19,03,43,10.70
2011,08,19,03,44,10.70
2011,08,19,03,45,10.70
2011,08,19,03,46,10.70
2011,08,19,03,47,10.70
2011,08,19,03,48,10.60
2011,08,19,03,49,10.60
2011,08,19,03,50,10.60
2011,08,19,03,51,10.60
2011,08,19,03,52,10.60
2011,08,19,03,53,10.60
2011,08,19,03,54,10.60
2011,08,19,03,55,10.60
2011,08,19,03,56,10.60
2011,08,19,03,57,10.60
2011,08,19,03,58,10.60
2011,08,19,03,59,10.60
2011,08,19,04,00,10.60
2011,08,19,04,01,10.60
2011,08,19,04,02,10.60
2011,08,19,04,03,10.60
2011,08,19,04,04,10.60
2011,08,19,04,05,10.60
2011,08,19,04,06,10.60
2011,08,19,04,07,10.60
2011,08,19,04,08,10.60
2011,08,19,04,09,10.60
2011,08,19,04,10,10.60
2011,08,19,04,11,10.60
2011,08,19,04,12,10.60
2011,08,19,04,13,10.60
2011,08,19,04,14,10.60
2011,08,19,04,15,10.50
2011,08,19,04,16,10.40
2011,08,19,04,17,10.40
2011,08,19,04,18,10.40
2011,08,19,04,19,10.40
2011,08,19,04,20,10.40
2011,08,19,04,21,10.40
2011,08,19,04,22,10.40
2011,08,19,04,23,10.40
2011,08,19,04,24,10.40
2011,08,19,04,25,10.40
2011,08,19,04,26,10.40
2011,08,19,04,27,10.40
2011,08,19,04,28,10.40
2011,08,19,04,29,10.40
2011,08,19,04,30,10.40
2011,08,19,04,31,10.40
2011,08,19,04,32,10.40
2011,08,19,04,33,10.40
2011,08,19,04,34,10.40
2011,08,19,04,35,10.40
2011,08,19,04,36,10.40
2011,08,19,04,37,10.40
2011,08,19,04,38,10.40
2011,08,19,04,39,10.40
2011,08,19,04,40,10.40
2011,08,19,04,41,10.40
2011,08,19,04,42,10.40
2011,08,19,04,43,10.40
2011,08,19,04,44,10.40
2011,08,19,04,45,10.40
2011,08,19,04,46,10.40
2011,08,19,04,47,10.40
2011,08,19,04,48,10.30
2011,08,19,04,49,10.30
2011,08,19,04,50,10.30
2011,08,19,04,51,10.30
2011,08,19,04,52,10.20
2011,08,19,04,53,10.20
2011,08,19,04,54,10.20
2011,08,19,04,55,10.20
2011,08,19,04,56,10.20
2011,08,19,04,57,10.20
2011,08,19,04,58,10.20
2011,08,19,04,59,10.20
2011,08,19,05,00,10.10
2011,08,19,05,01,10.10
2011,08,19,05,02,10.10
2011,08,19,05,03,10.10
2011,08,19,05,04,10.10
2011,08,19,05,05,10.10
2011,08,19,05,06,10.10
2011,08,19,05,07,10.10
2011,08,19,05,08,10.10
2011,08,19,05,09,10.10
2011,08,19,05,10,10.10
2011,08,19,05,11,10.10
2011,08,19,05,12,10.10
2011,08,19,05,13,10.10
2011,08,19,05,14,10.10
2011,08,19,05,15,10.10
2011,08,19,05,16,10.10
2011,08,19,05,17,10.10
2011,08,19,05,18,10.10
2011,08,19,05,19,10.10
2011,08,19,05,20,10.10
2011,08,19,05,21,10.20
2011,08,19,05,22,10.20
2011,08,19,05,23,10.20
2011,08,19,05,24,10.20
2011,08,19,05,25,10.10
2011,08,19,05,26,10.10
2011,08,19,05,27,10.10
2011,08,19,05,28,10.10
2011,08,19,05,29,10.10
2011,08,19,05,30,10.10
2011,08,19,05,31,10.00
2011,08,19,05,32,9.90
2011,08,19,05,33,9.90
2011,08,19,05,34,9.90
2011,08,19,05,35,9.90
2011,08,19,05,36,9.90
2011,08,19,05,37,9.80
2011,08,19,05,38,9.80
2011,08,19,05,39,9.80
2011,08,19,05,40,9.90
2011,08,19,05,41,9.90
2011,08,19,05,42,9.90
2011,08,19,05,43,9.90
2011,08,19,05,44,9.90
2011,08,19,05,45,9.90
2011,08,19,05,46,9.90
2011,08,19,05,47,9.90
2011,08,19,05,48,9.80
2011,08,19,05,49,9.80
2011,08,19,05,50,9.80
2011,08,19,05,51,9.80
2011,08,19,05,52,9.80
2011,08,19,05,53,9.70
2011,08,19,05,54,9.70
2011,08,19,05,55,9.70
2011,08,19,05,56,9.70
2011,08,19,05,57,9.70
2011,08,19,05,58,9.70
2011,08,19,05,59,9.70
2011,08,19,06,00,9.70
2011,08,19,06,01,9.60
2011,08,19,06,02,9.60
2011,08,19,06,03,9.60
2011,08,19,06,04,9.60
2011,08,19,06,05,9.60
2011,08,19,06,06,9.60
2011,08,19,06,07,9.60
2011,08,19,06,08,9.60
2011,08,19,06,09,9.60
2011,08,19,06,10,9.70
2011,08,19,06,11,9.70
2011,08,19,06,12,9.70
2011,08,19,06,13,9.70
2011,08,19,06,14,9.70
2011,08,19,06,15,9.70
2011,08,19,06,16,9.70
2011,08,19,06,17,9.70
2011,08,19,06,18,9.70
2011,08,19,06,19,9.70
2011,08,19,06,20,9.60
2011,08,19,06,21,9.60
2011,08,19,06,22,9.60
2011,08,19,06,23,9.60
2011,08,19,06,24,9.60
2011,08,19,06,25,9.70
2011,08,19,06,26,9.70
2011,08,19,06,27,9.70
2011,08,19,06,28,9.70
2011,08,19,06,29,9.70
2011,08,19,06,30,9.70
2011,08,19,06,31,9.70
2011,08,19,06,32,9.70
2011,08,19,06,33,9.70
2011,08,19,06,34,9.70
2011,08,19,06,35,9.70
2011,08,19,06,36,9.70
2011,08,19,06,37,9.70
2011,08,19,06,38,9.80
2011,08,19,06,39,9.80
2011,08,19,06,40,9.80
2011,08,19,06,41,9.80
2011,08,19,06,42,9.80
2011,08,19,06,43,9.80
2011,08,19,06,44,9.90
2011,08,19,06,45,9.90
2011,08,19,06,46,9.90
2011,08,19,06,47,10.00
2011,08,19,06,48,10.10
2011,08,19,06,49,10.10
2011,08,19,06,50,10.10
2011,08,19,06,51,10.20
2011,08,19,06,52,10.20
2011,08,19,06,53,10.30
2011,08,19,06,54,10.40
2011,08,19,06,55,10.40
2011,08,19,06,56,10.50
2011,08,19,06,57,10.60
2011,08,19,06,58,10.60
2011,08,19,06,59,10.70
2011,08,19,07,00,10.80
2011,08,19,07,01,10.90
2011,08,19,07,02,10.90
2011,08,19,07,03,11.00
2011,08,19,07,04,11.10
2011,08,19,07,05,11.10
2011,08,19,07,06,11.10
2011,08,19,07,07,11.20
2011,08,19,07,08,11.20
2011,08,19,07,09,11.30
2011,08,19,07,10,11.30
2011,08,19,07,11,11.40
2011,08,19,07,12,11.40
2011,08,19,07,13,11.50
2011,08,19,07,14,11.60
2011,08,19,07,15,11.60
2011,08,19,07,16,11.70
2011,08,19,07,17,11.70
2011,08,19,07,18,11.70
2011,08,19,07,19,11.80
2011,08,19,07,20,11.80
2011,08,19,07,21,11.80
2011,08,19,07,22,11.90
2011,08,19,07,23,11.90
2011,08,19,07,24,12.00
2011,08,19,07,25,12.10
2011,08,19,07,26,12.10
2011,08,19,07,27,12.20
2011,08,19,07,28,12.30
2011,08,19,07,29,12.30
2011,08,19,07,30,12.40
2011,08,19,07,31,12.50
2011,08,19,07,32,12.50
2011,08,19,07,33,12.60
2011,08,19,07,34,12.60
2011,08,19,07,35,12.70
2011,08,19,07,36,12.70
2011,08,19,07,37,12.80
2011,08,19,07,38,12.80
2011,08,19,07,39,12.80
2011,08,19,07,40,12.90
2011,08,19,07,41,13.00
2011,08,19,07,42,13.10
2011,08,19,07,43,13.10
2011,08,19,07,44,13.20
2011,08,19,07,45,13.30
2011,08,19,07,46,13.30
2011,08,19,07,47,13.30
2011,08,19,07,48,13.40
2011,08,19,07,49,13.50
2011,08,19,07,50,13.60
2011,08,19,07,51,13.60
2011,08,19,07,52,13.60
2011,08,19,07,53,13.70
2011,08,19,07,54,13.70
2011,08,19,07,55,13.70
2011,08,19,07,56,13.90
2011,08,19,07,57,14.00
2011,08,19,07,58,14.10
2011,08,19,07,59,14.20
2011,08,19,08,00,14.30
2011,08,19,08,01,14.30
2011,08,19,08,02,14.50
2011,08,19,08,03,14.60
2011,08,19,08,04,14.60
2011,08,19,08,05,14.70
2011,08,19,08,06,14.70
2011,08,19,08,07,14.80
2011,08,19,08,08,14.80
2011,08,19,08,09,14.80
2011,08,19,08,10,14.90
2011,08,19,08,11,15.00
2011,08,19,08,12,15.00
2011,08,19,08,13,15.10
2011,08,19,08,14,15.20
2011,08,19,08,15,15.20
2011,08,19,08,16,15.20
2011,08,19,08,17,15.30
2011,08,19,08,18,15.20
2011,08,19,08,19,15.20
2011,08,19,08,20,15.30
2011,08,19,08,21,15.30
2011,08,19,08,22,15.30
2011,08,19,08,23,15.30
2011,08,19,08,24,15.30
2011,08,19,08,25,15.40
2011,08,19,08,26,15.50
2011,08,19,08,27,15.60
2011,08,19,08,28,15.60
2011,08,19,08,29,15.70
2011,08,19,08,30,15.80
2011,08,19,08,31,15.80
2011,08,19,08,32,15.80
2011,08,19,08,33,15.90
2011,08,19,08,34,15.90
2011,08,19,08,35,16.00
2011,08,19,08,36,16.10
2011,08,19,08,37,16.10
2011,08,19,08,38,16.10
2011,08,19,08,39,16.10
2011,08,19,08,40,16.10
2011,08,19,08,41,16.10
2011,08,19,08,42,16.20
2011,08,19,08,43,16.20
2011,08,19,08,44,16.30
2011,08,19,08,45,16.30
2011,08,19,08,46,16.40
2011,08,19,08,47,16.40
2011,08,19,08,48,15.80
2011,08,19,08,49,15.60
2011,08,19,08,50,15.60
2011,08,19,08,51,15.70
2011,08,19,08,52,15.60
2011,08,19,08,53,15.70
2011,08,19,08,54,15.80
2011,08,19,08,55,15.80
2011,08,19,08,56,16.00
2011,08,19,08,57,16.10
2011,08,19,08,58,16.10
2011,08,19,08,59,16.20
2011,08,19,09,00,16.10
2011,08,19,09,01,16.10
2011,08,19,09,02,16.10
2011,08,19,09,03,16.10
2011,08,19,09,04,16.00
2011,08,19,09,05,15.90
2011,08,19,09,06,15.90
2011,08,19,09,07,16.10
2011,08,19,09,08,16.10
2011,08,19,09,09,16.20
2011,08,19,09,10,16.20
2011,08,19,09,11,16.20
2011,08,19,09,12,16.30
2011,08,19,09,13,16.40
2011,08,19,09,14,16.40
2011,08,19,09,15,16.60
2011,08,19,09,16,16.60
2011,08,19,09,17,16.50
2011,08,19,09,18,16.40
2011,08,19,09,19,16.40
2011,08,19,09,20,16.40
2011,08,19,09,21,16.40
2011,08,19,09,22,16.40
2011,08,19,09,23,16.40
2011,08,19,09,24,16.60
2011,08,19,09,25,16.60
2011,08,19,09,26,16.70
2011,08,19,09,27,16.70
2011,08,19,09,28,16.70
2011,08,19,09,29,16.70
2011,08,19,09,30,16.60
2011,08,19,09,31,16.60
2011,08,19,09,32,16.60
2011,08,19,09,33,16.60
2011,08,19,09,34,16.60
2011,08,19,09,35,16.70
2011,08,19,09,36,16.70
2011,08,19,09,37,16.80
2011,08,19,09,38,16.90
2011,08,19,09,39,17.00
2011,08,19,09,40,17.10
2011,08,19,09,41,17.10
2011,08,19,09,42,17.30
2011,08,19,09,43,17.30
2011,08,19,09,44,17.30
2011,08,19,09,45,17.30
2011,08,19,09,46,17.30
2011,08,19,09,47,17.30
2011,08,19,09,48,17.30
2011,08,19,09,49,17.30
2011,08,19,09,50,17.30
2011,08,19,09,51,17.30
2011,08,19,09,52,17.30
2011,08,19,09,53,17.30
2011,08,19,09,54,17.30
2011,08,19,09,55,17.30
2011,08,19,09,56,17.30
2011,08,19,09,57,17.30
2011,08,19,09,58,17.30
2011,08,19,09,59,17.40
2011,08,19,10,00,17.40
2011,08,19,10,01,17.40
2011,08,19,10,02,17.40
2011,08,19,10,03,17.40
2011,08,19,10,04,17.40
2011,08,19,10,05,17.40
2011,08,19,10,06,17.40
2011,08,19,10,07,17.30
2011,08,19,10,08,17.30
2011,08,19,10,09,17.40
2011,08,19,10,10,17.30
2011,08,19,10,11,17.40
2011,08,19,10,12,17.40
2011,08,19,10,13,17.40
2011,08,19,10,14,17.40
2011,08,19,10,15,17.40
2011,08,19,10,16,17.50
2011,08,19,10,17,17.60
2011,08,19,10,18,17.70
2011,08,19,10,19,17.80
2011,08,19,10,20,17.80
2011,08,19,10,21,17.80
2011,08,19,10,22,17.90
2011,08,19,10,23,17.90
2011,08,19,10,24,17.90
2011,08,19,10,25,17.90
2011,08,19,10,26,18.00
2011,08,19,10,27,18.10
2011,08,19,10,28,18.10
2011,08,19,10,29,18.10
2011,08,19,10,30,18.20
2011,08,19,10,31,18.20
2011,08,19,10,32,18.30
2011,08,19,10,33,18.40
2011,08,19,10,34,18.40
2011,08,19,10,35,18.50
2011,08,19,10,36,18.50
2011,08,19,10,37,18.50
2011,08,19,10,38,18.50
2011,08,19,10,39,18.50
2011,08,19,10,40,18.50
2011,08,19,10,41,18.50
2011,08,19,10,42,18.50
2011,08,19,10,43,18.50
2011,08,19,10,44,18.60
2011,08,19,10,45,18.60
2011,08,19,10,46,18.60
2011,08,19,10,47,18.80
2011,08,19,10,48,18.90
2011,08,19,10,49,18.90
2011,08,19,10,50,18.80
2011,08,19,10,51,18.70
2011,08,19,10,52,18.70
2011,08,19,10,53,18.60
2011,08,19,10,54,18.50
2011,08,19,10,55,18.40
2011,08,19,10,56,18.30
2011,08,19,10,57,18.30
2011,08,19,10,58,18.40
2011,08,19,10,59,18.50
2011,08,19,11,00,18.60
2011,08,19,11,01,18.60
2011,08,19,11,02,18.70
2011,08,19,11,03,18.70
2011,08,19,11,04,18.70
2011,08,19,11,05,18.70
2011,08,19,11,06,18.80
2011,08,19,11,07,18.80
2011,08,19,11,08,18.80
2011,08,19,11,09,18.80
2011,08,19,11,10,18.90
2011,08,19,11,11,18.90
2011,08,19,11,12,18.80
2011,08,19,11,13,18.70
2011,08,19,11,14,18.50
2011,08,19,11,15,18.40
2011,08,19,11,16,18.30
2011,08,19,11,17,18.20
2011,08,19,11,18,18.20
2011,08,19,11,19,18.20
2011,08,19,11,20,18.20
2011,08,19,11,21,18.20
2011,08,19,11,22,18.30
2011,08,19,11,23,18.30
2011,08,19,11,24,18.40
2011,08,19,11,25,18.50
2011,08,19,11,26,18.60
2011,08,19,11,27,18.60
2011,08,19,11,28,18.60
2011,08,19,11,29,18.50
2011,08,19,11,30,18.50
2011,08,19,11,31,18.50
2011,08,19,11,32,18.60
2011,08,19,11,33,18.70
2011,08,19,11,34,18.80
2011,08,19,11,35,18.80
2011,08,19,11,36,18.80
2011,08,19,11,37,18.90
2011,08,19,11,38,18.80
2011,08,19,11,39,18.60
2011,08,19,11,40,18.60
2011,08,19,11,41,18.60
2011,08,19,11,42,18.70
2011,08,19,11,43,18.80
2011,08,19,11,44,18.90
2011,08,19,11,45,19.00
2011,08,19,11,46,19.10
2011,08,19,11,47,19.20
2011,08,19,11,48,19.20
2011,08,19,11,49,19.30
2011,08,19,11,50,19.40
2011,08,19,11,51,19.50
2011,08,19,11,52,19.50
2011,08,19,11,53,19.40
2011,08,19,11,54,19.40
2011,08,19,11,55,19.40
2011,08,19,11,56,19.30
2011,08,19,11,57,19.30
2011,08,19,11,58,19.30
2011,08,19,11,59,19.20
2011,08,19,12,00,19.10
2011,08,19,12,01,18.90
2011,08,19,12,02,18.80
2011,08,19,12,03,18.70
2011,08,19,12,04,18.70
2011,08,19,12,05,18.70
2011,08,19,12,06,18.80
2011,08,19,12,07,18.90
2011,08,19,12,08,18.90
2011,08,19,12,09,18.90
2011,08,19,12,10,18.90
2011,08,19,12,11,18.90
2011,08,19,12,12,18.90
2011,08,19,12,13,19.10
2011,08,19,12,14,19.00
2011,08,19,12,15,18.90
2011,08,19,12,16,18.90
2011,08,19,12,17,18.90
2011,08,19,12,18,18.90
2011,08,19,12,19,18.90
2011,08,19,12,20,18.90
2011,08,19,12,21,18.90
2011,08,19,12,22,18.90
2011,08,19,12,23,18.90
2011,08,19,12,24,18.80
2011,08,19,12,25,18.70
2011,08,19,12,26,18.50
2011,08,19,12,27,18.50
2011,08,19,12,28,18.50
2011,08,19,12,29,18.40
2011,08,19,12,30,18.30
2011,08,19,12,31,18.30
2011,08,19,12,32,18.20
2011,08,19,12,33,18.30
2011,08,19,12,34,18.40
2011,08,19,12,35,18.40
2011,08,19,12,36,18.30
2011,08,19,12,37,18.40
2011,08,19,12,38,18.50
2011,08,19,12,39,18.70
2011,08,19,12,40,18.80
2011,08,19,12,41,18.80
2011,08,19,12,42,18.80
2011,08,19,12,43,18.80
2011,08,19,12,44,18.80
2011,08,19,12,45,18.80
2011,08,19,12,46,18.90
2011,08,19,12,47,18.90
2011,08,19,12,48,18.80
2011,08,19,12,49,18.80
2011,08,19,12,50,18.80
2011,08,19,12,51,18.70
2011,08,19,12,52,18.80
2011,08,19,12,53,18.90
2011,08,19,12,54,18.90
2011,08,19,12,55,18.90
2011,08,19,12,56,18.90
2011,08,19,12,57,19.00
2011,08,19,12,58,19.10
2011,08,19,12,59,19.30
2011,08,19,13,00,19.30
2011,08,19,13,01,19.40
2011,08,19,13,02,19.60
2011,08,19,13,03,19.60
2011,08,19,13,04,19.80
2011,08,19,13,05,19.90
2011,08,19,13,06,19.90
2011,08,19,13,07,19.90
2011,08,19,13,08,19.90
2011,08,19,13,09,19.90
2011,08,19,13,10,19.90
2011,08,19,13,11,19.90
2011,08,19,13,12,20.00
2011,08,19,13,13,20.10
2011,08,19,13,14,20.10
2011,08,19,13,15,20.20
2011,08,19,13,16,20.10
2011,08,19,13,17,20.00
2011,08,19,13,18,19.90
2011,08,19,13,19,20.00
2011,08,19,13,20,20.10
2011,08,19,13,21,20.10
2011,08,19,13,22,20.20
2011,08,19,13,23,20.20
2011,08,19,13,24,20.10
2011,08,19,13,25,20.00
2011,08,19,13,26,20.00
2011,08,19,13,27,20.10
2011,08,19,13,28,20.00
2011,08,19,13,29,20.00
2011,08,19,13,30,20.10
2011,08,19,13,31,20.10
2011,08,19,13,32,19.90
2011,08,19,13,33,19.90
2011,08,19,13,34,19.80
2011,08,19,13,35,19.90
2011,08,19,13,36,19.90
2011,08,19,13,37,19.90
2011,08,19,13,38,19.90
2011,08,19,13,39,20.00
2011,08,19,13,40,20.10
2011,08,19,13,41,20.00
2011,08,19,13,42,19.90
2011,08,19,13,43,19.90
2011,08,19,13,44,20.00
2011,08,19,13,45,20.10
2011,08,19,13,46,20.20
2011,08,19,13,47,20.20
2011,08,19,13,48,20.20
2011,08,19,13,49,20.30
2011,08,19,13,50,20.30
2011,08,19,13,51,20.20
2011,08,19,13,52,20.20
2011,08,19,13,53,20.20
2011,08,19,13,54,20.20
2011,08,19,13,55,20.20
2011,08,19,13,56,20.10
2011,08,19,13,57,20.10
2011,08,19,13,58,20.10
2011,08,19,13,59,20.20
2011,08,19,14,00,20.20
2011,08,19,14,01,20.20
2011,08,19,14,02,20.20
2011,08,19,14,03,20.40
2011,08,19,14,04,20.50
2011,08,19,14,05,20.50
2011,08,19,14,06,20.60
2011,08,19,14,07,20.80
2011,08,19,14,08,21.00
2011,08,19,14,09,21.10
2011,08,19,14,10,21.30
2011,08,19,14,11,21.30
2011,08,19,14,12,21.40
2011,08,19,14,13,21.60
2011,08,19,14,14,21.60
2011,08,19,14,15,21.70
2011,08,19,14,16,21.70
2011,08,19,14,17,21.80
2011,08,19,14,18,21.90
2011,08,19,14,19,22.00
2011,08,19,14,20,22.20
2011,08,19,14,21,22.30
2011,08,19,14,22,22.50
2011,08,19,14,23,22.50
2011,08,19,14,24,22.60
2011,08,19,14,25,22.70
2011,08,19,14,26,22.80
2011,08,19,14,27,22.90
2011,08,19,14,28,22.90
2011,08,19,14,29,22.60
2011,08,19,14,30,22.10
2011,08,19,14,31,21.60
2011,08,19,14,32,21.40
2011,08,19,14,33,21.30
2011,08,19,14,34,21.20
2011,08,19,14,35,21.10
2011,08,19,14,36,21.00
2011,08,19,14,37,20.80
2011,08,19,14,38,20.70
2011,08,19,14,39,20.60
2011,08,19,14,40,20.60
2011,08,19,14,41,20.60
2011,08,19,14,42,20.60
2011,08,19,14,43,20.60
2011,08,19,14,44,20.70
2011,08,19,14,45,20.80
2011,08,19,14,46,20.70
2011,08,19,14,47,20.70
2011,08,19,14,48,20.60
2011,08,19,14,49,20.50
2011,08,19,14,50,20.40
2011,08,19,14,51,20.30
2011,08,19,14,52,20.30
2011,08,19,14,53,20.40
2011,08,19,14,54,20.50
2011,08,19,14,55,20.60
2011,08,19,14,56,20.70
2011,08,19,14,57,20.80
2011,08,19,14,58,20.90
2011,08,19,14,59,20.90
2011,08,19,15,00,20.80
2011,08,19,15,01,20.70
2011,08,19,15,02,20.70
2011,08,19,15,03,20.70
2011,08,19,15,04,20.80
2011,08,19,15,05,20.90
2011,08,19,15,06,21.10
2011,08,19,15,07,21.20
2011,08,19,15,08,21.30
2011,08,19,15,09,21.30
2011,08,19,15,10,21.20
2011,08,19,15,11,21.20
2011,08,19,15,12,21.30
2011,08,19,15,13,21.40
2011,08,19,15,14,21.60
2011,08,19,15,15,21.60
2011,08,19,15,16,21.50
2011,08,19,15,17,21.40
2011,08,19,15,18,21.50
2011,08,19,15,19,21.50
2011,08,19,15,20,21.40
2011,08,19,15,21,21.30
2011,08,19,15,22,21.20
2011,08,19,15,23,21.10
2011,08,19,15,24,21.10
2011,08,19,15,25,21.00
2011,08,19,15,26,21.00
2011,08,19,15,27,21.00
2011,08,19,15,28,21.00
2011,08,19,15,29,21.10
2011,08,19,15,30,21.20
2011,08,19,15,31,21.30
2011,08,19,15,32,21.30
2011,08,19,15,33,21.20
2011,08,19,15,34,21.20
2011,08,19,15,35,21.20
2011,08,19,15,36,21.30
2011,08,19,15,37,21.30
2011,08,19,15,38,21.40
2011,08,19,15,39,21.50
2011,08,19,15,40,21.60
2011,08,19,15,41,21.60
2011,08,19,15,42,21.60
2011,08,19,15,43,21.60
2011,08,19,15,44,21.70
2011,08,19,15,45,21.80
2011,08,19,15,46,21.90
2011,08,19,15,47,21.90
2011,08,19,15,48,22.00
2011,08,19,15,49,22.00
2011,08,19,15,50,22.10
2011,08,19,15,51,22.10
2011,08,19,15,52,22.10
2011,08,19,15,53,22.10
2011,08,19,15,54,22.20
2011,08,19,15,55,22.30
2011,08,19,15,56,22.40
2011,08,19,15,57,22.40
2011,08,19,15,58,22.50
2011,08,19,15,59,22.50
2011,08,19,16,00,22.50
2011,08,19,16,01,22.50
2011,08,19,16,02,22.50
2011,08,19,16,03,22.70
2011,08,19,16,04,22.80
2011,08,19,16,05,22.90
2011,08,19,16,06,23.00
2011,08,19,16,07,23.10
2011,08,19,16,08,23.20
2011,08,19,16,09,23.10
2011,08,19,16,10,22.90
2011,08,19,16,11,22.90
2011,08,19,16,12,22.90
2011,08,19,16,13,22.90
2011,08,19,16,14,22.90
2011,08,19,16,15,22.90
2011,08,19,16,16,23.10
2011,08,19,16,17,23.00
2011,08,19,16,18,22.90
2011,08,19,16,19,22.80
2011,08,19,16,20,22.70
2011,08,19,16,21,22.50
2011,08,19,16,22,22.10
2011,08,19,16,23,21.70
2011,08,19,16,24,21.60
2011,08,19,16,25,21.50
2011,08,19,16,26,21.40
2011,08,19,16,27,21.40
2011,08,19,16,28,21.40
2011,08,19,16,29,21.40
2011,08,19,16,30,21.40
2011,08,19,16,31,21.40
2011,08,19,16,32,21.50
2011,08,19,16,33,21.60
2011,08,19,16,34,21.60
2011,08,19,16,35,21.60
2011,08,19,16,36,21.60
2011,08,19,16,37,21.60
2011,08,19,16,38,21.60
2011,08,19,16,39,21.60
2011,08,19,16,40,21.40
2011,08,19,16,41,21.40
2011,08,19,16,42,21.40
2011,08,19,16,43,21.50
2011,08,19,16,44,21.60
2011,08,19,16,45,21.60
2011,08,19,16,46,21.70
2011,08,19,16,47,21.70
2011,08,19,16,48,21.80
2011,08,19,16,49,21.70
2011,08,19,16,50,21.70
2011,08,19,16,51,21.80
2011,08,19,16,52,21.80
2011,08,19,16,53,21.80
2011,08,19,16,54,22.00
2011,08,19,16,55,22.10
2011,08,19,16,56,22.30
2011,08,19,16,57,22.50
2011,08,19,16,58,22.80
2011,08,19,16,59,23.10
2011,08,19,17,00,23.30
2011,08,19,17,01,23.60
2011,08,19,17,02,23.90
2011,08,19,17,03,24.10
2011,08,19,17,04,24.30
2011,08,19,17,05,24.40
2011,08,19,17,06,24.50
2011,08,19,17,07,24.70
2011,08,19,17,08,24.70
2011,08,19,17,09,24.80
2011,08,19,17,10,24.90
2011,08,19,17,11,24.90
2011,08,19,17,12,24.90
2011,08,19,17,13,24.90
2011,08,19,17,14,24.90
2011,08,19,17,15,24.70
2011,08,19,17,16,24.60
2011,08,19,17,17,24.50
2011,08,19,17,18,24.30
2011,08,19,17,19,24.30
2011,08,19,17,20,24.40
2011,08,19,17,21,24.50
2011,08,19,17,22,24.50